Location: ?????????
(41.2393°N, 22.9479°E)
Time: 22:58:59
(UTC+00:00)

BREEZE-M DEB (TANK) - Pass Details

Date: 17 November 2025
Orbit: 446 x 13139 km, 46.0° (Epoch: 09 December)

Event Time Altitude Azimuth Distance (km) Brightness Sun altitude
Rises 17:52:00 0° 294° (WNW) 7,462 9.5 -30.9°
Reaches altitude 10° 17:58:45 10° 293° (WNW) 4,794 8.3 -32.1°
Enters shadow 18:07:33 59° 271° (W) 1,088 4.3 -33.8°
